DELTA 1 DEB

Satellite information

Favourite Embed

Satellite Type and Status

DEBRISIN ORBIT

Key statistics

Satellite DELTA 1 DEB at a glance.

Uptime

17527

Days in orbit

Revolutions

≈ 14.6

Per day

Orbit

LEO

Low Earth Orbit

Inclination

29.3

Latest

Satellite identification and parameters

Extended collection of information and parameters for DELTA 1 DEB.

Object identification

Identified? True

Debris? True

Object name: DELTA 1 DEB

International designator: 1977-065GM

Object number (NORAD): 39100

Object ID (CCSDS): 39100

Country: UNITED STATES OF AMERICA (US)

Current information (Y/N): Y

RCS size: SMALL

Orbital parameters

Period: 98.769 minutes

Inclination: 29.2795 deg

SMA: 7077.938 km

Apoapsis: 955.623 km

Periapsis: 443.983 km

RAAN: 18.1223 deg

Eccentricy: 0.0361433

Argument of periapsis: 271.7347 deg

Mean anomaly: 84.1888 deg

Mean motion: 14.57949887 rev/day

Mean motion (dot): 0.00003525 rev/day2

B* drag term: 0.00028352 1/REarth

Two-line elements (TLE)

Creation date: July 8, 2025, 2:27 a.m.

Reference frame: TEME

Reference center: EARTH

Epoch: July 7, 2025, 7:10 p.m. UTC

TLE line 0: 0 DELTA 1 DEB

TLE line 1: 1 39100U 77065GM 25188.79878039 .00003525 00000-0 28352-3 0 9991

TLE line 2: 2 39100 29.2795 18.1223 0361433 271.7347 84.1888 14.57949887681674

Live tracking on map

Real-time ground track for satellite DELTA 1 DEB.

In-orbit conjunctions

A list of the most updated potential collisions computed for object DELTA 1 DEB.

Target Orbit TCA Probability of collision Miss distance Type
SL-8 R/B LEO 2025-05-23 01:22:35 0.0002597154 498.0 (m) ROCKET BODY
FENGYUN 1C DEB SSO 2024-11-16 17:42:50 0.0001150662 232.0 (m) DEBRIS

Associated space launch

Japanese meteorological satellite built by Hughes Space and Communications Company

DELTA 1 DEB was lifted into orbit during the mission ‘Delta 2914 | Himawari’, on board a Delta 2914 space rocket.

The launch took place on July 14, 1977, 10:39 a.m. from Space Launch Complex 17B.

For more information about the launch, click the button.

Launch to space Delta 2914 | Himawari
Delta 2914 | Himawari

Agency: N/A

Status: Launch Successful

Launch date: July 14, 1977, 10:39 a.m. UTC

Rocket: Delta 2914

Launch pad: Space Launch Complex 17B

Location: Cape Canaveral SFS, FL, USA

...

Latest news about this satellite

There are no fresh news available about this satellite. Check back as we update our databases every day.


Newsletter sign-up

Weekly statistics, charts and insights to help you stay on top of the space industry.